ATLAS 5 CENTAUR DEB, 44038

Orbit data source: Space-Track

ATLAS 5 CENTAUR DEB, 44038 is space debris in HEO originally from a launch on Wed, 17 Sep 2014 UTC launched from the Air Force Eastern Test Range (AFETR). Debris objects in space refer to the collection of defunct objects orbiting the Earth. Examples of debris include non-operational satellites, rocket bodies, and fragments generated from explosions, collisions, or faulty payload assembly.

Loading next visibility...
ATLAS 5 CENTAUR DEB details
Identifier
44038, 2014-055BY
Orbit
HEO
Last TLE update2 days ago
Origin
Flag of USULA (US)
ManufacturerUnknown
MissionSpacecraft
Bus & MotorUnknown
MassUnknown
Launch date (UTC)
2014-09-17 (10 years ago)
Launch vehicleUnknown
Launch site
Air Force Eastern Test Range (AFETR)
Object type
Payload
Rocket body
Debris
Shape & HBRUnknown
Radar Cross SectionSmall (<0.1 m²)

Expand to show TLE details & history

TLE from 2 days ago
0 ATLAS 5 CENTAUR DEB
1 44038U 14055BY  24359.82225752 -.00000052  00000-0  00000-0 0  9998
2 44038  20.0063 235.7905 4546081   5.0956 358.4316  1.76613286 39749
Epoch: 2024-12-24T19:44Z
Definitive object data (Epoch: 2024-12-24T19:44:03.049Z)
Latitude-0.00006°
Longitude-154.00717°
Altitude9,391.833 km
Speed6.063 km/s
True Right ascension15h 43m 19s
True Declination0° 00' 00"
Sunlit
Object was in daylight at TLE epoch
Visualization TLE readout
Latitude-5.01198°
Longitude39.76829°
Altitude35,234.279 km
Speed2.318 km/s
Apparent Right ascension04h 55m 43s
Apparent Declination-9° 41' 26"
Sunlit
Object is in daylight
Visualization observer readout
Local Sidereal Time19:34:22
Azimuth60.373° ENE
Elevation-43.632°
Doppler factor1
Orbital elements
Apogee altitude35,677.663 km
Perigee altitude9,390.297 km
Semi-major axis28,912.117 km
Eccentricity0.4546081
Inclination20.0063°
RAAN235.7905°
Arg. of periapsis5.0956°
True anomaly355.30686°
Mean anomaly358.4316°
Eccentric anomaly357.12527°
Mean motion0.44149 °/min
BSTARUnknown
Orbital period815.42 mins
Loading maneuver chart data...

ATLAS 5 CENTAUR DEB Visibility forecast

Observer location: undefined°, undefined

Span
Click to sort rows by Start time (UTC) header in descending order
Start Az.
Max El. time (UTC)
Max El. Az.
Max El.
End time (UTC)
End Az.
303 mins2024-12-27 03:44:35.453Z274.797° WNW2024-12-27 05:26:35.453Z256.688° W22.701°2024-12-27 08:47:35.453Z251.585° W
106 mins2024-12-27 15:03:35.453Z208.343° SW2024-12-27 15:52:35.453Z145.787° SSE26.785°2024-12-27 16:49:35.453Z87.643° E
|